Regional Weather Roundup
Issued by NWS State College, PA

Home | Current Version | Previous Version | Text Only | Print | Product List | Glossary On
Versions: 1 2 3 4 5 6 7 8 9 10 11 12 13 14 15 16 17 18 19 20 21 22 23 24 25 26 27 28 29 30 31 32 33 34 35 36 37 38 39 40 41 42 43 44 45 46 47 48 49 50
000
ASUS41 KCTP 181110
RWRCTP

REGIONAL WEATHER ROUNDUP
NATIONAL WEATHER SERVICE STATE COLLEGE PA
700 AM EDT SAT APR 18 2015

Note: "fair" indicates few or no clouds below 12,000 feet with no
significant weather and/or obstructions to visibility.

* = STATION THAT DOES NOT REPORT PRECIPITATION /E.G. RAIN...SNOW...ETC/
    THUNDER OR FOG.

PAZ002>004-007>009-013>016-020>023-029>032-181200-
WESTERN PENNSYLVANIA

CITY           SKY/WX    TMP DP  RH WIND       PRES   REMARKS
ERIE           CLEAR     55  42  61 S9        30.01R
MEADVILLE      CLEAR     50  44  80 S6        30.04R
FRANKLIN*      CLEAR     45  39  81 SW7       30.06R
NEW CASTLE     FAIR      42  42 100 CALM      30.08R
BEAVER COUNTY  NOT AVBL
BUTLER*        CLEAR     43  39  87 CALM      30.08R
PITTSBURGH INT PTCLDY    46  43  89 CALM      30.06R
PITTSBURGH     CLEAR     51  45  79 CALM      30.05R
INDIANA*       CLEAR     41  41 100 E3        30.10R
LATROBE        FOG       39  39 100 CALM      30.09R VSB<1/4
WASHINGTON CO* CLEAR     39  37  93 CALM      30.08R
$$

PAZ004>006-010>012-017>019-024>028-033>037-041-042-045-046-049>053-181200-
CENTRAL PENNSYLVANIA

CITY           SKY/WX    TMP DP  RH WIND       PRES   REMARKS
BRADFORD       CLEAR     35  33  92 CALM      30.03S
DUBOIS         CLEAR     48  44  86 CALM      30.04R
CLEARFIELD     FOG       41  40  96 SW5       30.06R VSB<1/4
JOHNSTOWN      CLEAR     47  44  90 SW6       30.07R
ALTOONA        CLEAR     46  43  89 W5        30.06R FOG
STATE COLLEGE  CLEAR     45  43  93 CALM      30.05R
WILLIAMSPORT   PTCLDY    43  41  93 CALM      30.04R
SELINSGROVE    CLEAR     41  41 100 CALM      30.04R FOG
FT INDIANTOWN  CLEAR     47  44  91 CALM      30.03R
CAPITAL CITY   CLEAR     48  45  89 W3        30.03R
HARRISBURG     PTCLDY    49  46  90 CALM      30.02R
YORK           CLEAR     43  42  97 CALM      30.03R FOG
$$

PAZ038>040-043-044-047-048-054-055-060>062-067>071-181200-
EASTERN PENNSYLVANIA

CITY           SKY/WX    TMP DP  RH WIND       PRES   REMARKS
SCRANTON       CLEAR     43  41  93 CALM      30.02R FOG
MOUNT POCONO   CLEAR     40  37  89 W3        30.00R FOG
ALLENTOWN      FAIR      45  45 100 CALM      30.02R FOG
QUAKERTOWN*    SUNNY     43  41  93 CALM      30.02R
READING        CLEAR     47  45  93 CALM      30.02R FOG
LANCASTER      CLEAR     48  45  89 W5        30.02R FOG
COATESVILLE    SUNNY     54  50  87 NW5       30.02R
POTTSTOWN      PTCLDY    47  47 100 CALM      30.02R FOG
BLUE BELL      CLEAR     50  48  93 CALM      30.00R
DOYLESTOWN     CLEAR     48  47  96 CALM      30.00R FOG
WILLOW GROVE   NOT AVBL
NORTH PHILA    CLEAR     54  49  83 NW3       30.01R
PHILADELPHIA   PTCLDY    57  52  83 NW5       30.01R
$$


USA.gov is the U.S. government's official web portal to all federal, state and local government web resources and services.